Wind_Speed
27 28 29 30 31 31 32 32 33 33 33 33 34 35 36 36 37 37 38 38 38 38 39 40 40 42 43 43 43 43 44 44 44 45 46 46 46 47 47 46 46 47 46
28 29 30 31 32 32 33 33 34 34 34 34 35 35 36 36 36 36 37 37 38 38 39 39 40 41 42 44 45 45 46 46 46 46 47 46 47 48 48 47 47 47 48
29 30 31 32 33 34 34 34 35 35 35 35 35 34 34 34 35 35 35 36 37 38 39 39 40 41 42 43 44 46 47 47 47 48 48 48 48 49 49 49 48 49 49
31 32 33 34 35 35 35 35 36 35 35 35 34 33 33 33 34 34 34 35 36 37 38 39 40 41 42 43 44 45 46 47 48 49 49 50 50 50 50 50 50 50 50
32 33 34 35 36 36 36 36 36 35 35 35 34 33 33 33 33 33 33 33 35 36 37 38 39 41 42 43 45 46 47 48 49 50 51 51 51 51 50 50 51 51 51
33 34 35 36 36 36 36 37 37 36 35 35 34 33 32 32 31 31 31 31 33 34 35 36 38 39 40 41 43 45 47 48 49 50 51 52 51 51 51 52 53 52 53
35 35 36 37 37 37 37 37 36 36 35 34 33 32 31 31 30 30 30 30 30 31 33 35 37 38 39 41 42 44 46 47 49 50 51 51 52 52 52 52 53 54 54
35 36 37 37 38 38 38 37 37 36 35 34 33 31 31 30 29 28 28 28 28 29 31 32 35 37 38 40 42 43 45 47 49 50 50 51 52 53 53 52 53 54 55
36 37 38 38 38 38 38 37 36 36 35 34 32 31 30 28 28 27 26 26 26 27 28 30 32 34 36 38 40 42 44 46 49 50 51 52 53 54 54 53 54 54 54
36 38 38 38 38 39 38 37 36 35 34 33 32 31 29 28 27 27 26 26 26 26 26 28 30 32 35 37 39 40 41 44 47 49 52 53 53 54 55 54 54 55 54
37 38 39 39 39 39 39 37 36 35 34 33 32 30 29 28 28 26 25 25 25 24 25 26 28 30 32 35 37 39 40 42 44 47 50 52 53 55 56 55 54 55 55
38 39 40 40 40 40 39 37 36 35 33 33 32 30 29 28 27 26 25 24 24 24 24 24 25 26 27 30 33 36 38 40 43 46 48 51 52 54 55 56 56 55 56
39 40 40 40 40 40 39 37 35 34 33 33 32 30 29 28 26 25 24 24 24 23 22 22 22 23 23 25 28 31 34 36 39 42 45 47 50 52 54 55 55 56 56
40 41 41 40 40 40 38 37 35 34 33 33 32 30 28 27 26 24 24 23 22 21 20 19 19 19 20 21 23 26 28 31 35 38 41 44 47 50 52 53 54 55 56
40 41 41 41 40 39 38 37 35 34 33 32 31 30 28 27 26 25 24 22 21 19 18 17 16 16 16 17 19 21 24 26 30 33 37 40 43 46 48 51 53 54 54
41 42 42 41 40 39 38 36 35 34 33 32 31 30 29 27 26 25 23 22 20 18 17 15 15 15 14 14 16 18 20 23 25 28 32 36 39 42 45 48 50 51 52
41 42 42 40 39 39 38 36 35 34 34 33 31 30 28 27 25 24 22 21 19 17 16 15 14 13 13 13 13 14 16 20 22 23 27 31 35 37 41 44 46 48 49
41 41 41 40 39 38 37 36 34 33 33 32 31 30 28 26 25 24 22 20 18 17 15 14 13 12 11 10 11 13 14 17 20 22 25 28 31 34 37 40 43 46 48
41 41 40 39 38 37 36 35 34 33 32 31 30 29 27 26 24 23 21 19 18 17 15 14 13 11 9 8 9 11 13 14 17 20 22 25 27 30 33 37 39 43 46
40 39 38 38 37 36 35 35 33 32 31 30 28 27 26 25 23 22 20 18 17 16 15 13 12 10 8 7 8 9 11 13 15 18 20 23 26 28 30 33 36 38 42
39 38 37 37 37 36 35 34 32 31 30 28 27 26 24 23 22 20 19 18 17 16 15 13 11 9 6 4 5 7 9 12 14 17 19 21 23 26 28 30 32 35 37
38 37 36 36 36 35 34 33 31 30 28 27 26 24 23 22 21 20 19 18 16 15 14 13 11 8 5 3 3 4 7 10 13 16 18 20 22 24 26 29 31 33 35
38 37 36 36 35 34 32 31 29 28 27 26 24 23 22 21 20 19 18 18 16 15 13 12 10 8 5 3 2 3 6 8 11 14 16 18 19 20 22 25 28 30 32
38 37 36 35 34 33 31 30 28 27 25 24 22 21 21 20 19 18 17 16 15 14 13 11 9 7 5 3 1 1 4 7 9 12 14 17 18 19 20 22 26 28 29
37 36 35 33 32 31 30 28 27 25 24 22 21 20 19 19 19 18 16 15 14 13 11 10 8 7 5 3 1 1 3 6 8 10 12 15 17 18 18 20 23 26 27
37 35 34 33 31 30 28 27 25 24 22 20 19 18 18 17 17 16 15 14 13 11 10 9 7 6 4 3 1 1 3 5 7 9 10 13 15 17 18 20 22 24 26
Wind_Direction
324 323 322 321 320 318 316 314 311 308 305 303 300 296 292 288 284 279 274 270 267 263 259 256 253 251 249 246 245 243 241 238 235 234 234 234 232 230 228 227 227 227 225
328 327 326 324 323 321 318 316 314 311 308 305 303 299 295 290 285 280 275 270 266 263 260 257 253 250 248 246 244 242 241 239 236 234 234 234 232 230 229 228 227 226 227
331 330 328 327 326 324 321 319 317 314 312 309 306 302 298 292 288 283 277 272 267 264 261 258 255 252 249 247 244 242 240 239 237 235 234 234 233 232 230 228 227 226 227
334 333 331 330 329 326 324 322 320 317 314 312 309 305 301 296 291 285 279 274 269 266 263 259 256 253 250 247 245 243 240 239 237 235 234 234 234 234 233 230 228 226 226
336 335 334 332 331 329 327 325 323 320 317 314 311 307 304 300 295 290 283 277 272 268 264 261 257 253 250 247 245 243 241 239 238 236 234 234 233 234 233 231 229 227 226
337 336 335 334 333 331 329 326 324 322 319 317 313 310 307 303 299 294 288 282 276 271 266 262 258 254 252 248 245 243 241 240 238 236 234 233 232 233 232 231 229 227 227
339 338 337 336 334 333 330 329 327 325 322 320 317 314 311 307 302 297 292 286 280 274 268 263 259 256 253 250 247 244 242 240 238 236 234 233 232 232 232 230 229 228 227
339 338 337 336 335 334 332 331 329 327 325 323 321 318 314 310 307 302 297 290 283 278 272 266 261 258 254 251 248 245 242 240 238 236 234 233 231 231 232 230 229 228 226
339 338 338 337 336 335 334 332 331 329 326 325 323 321 318 314 310 306 301 296 291 284 277 270 264 260 255 251 248 246 242 240 238 235 233 231 230 229 230 229 228 227 226
339 339 339 338 338 336 335 334 332 331 329 327 326 323 321 317 314 310 305 300 295 288 281 274 267 261 257 252 248 245 243 241 239 236 233 231 230 229 228 228 227 226 226
340 340 340 339 339 338 337 335 334 333 331 331 328 326 323 320 317 313 309 306 300 293 287 280 273 266 259 254 248 245 243 240 238 236 234 231 230 229 229 228 227 225 225
340 341 340 339 339 339 338 337 335 335 333 333 331 328 325 322 320 317 313 309 304 299 292 285 278 271 263 255 249 246 243 240 238 235 233 232 230 228 228 228 227 226 225
340 341 341 340 340 340 339 338 337 336 336 335 334 331 329 326 323 320 318 314 309 304 297 291 283 276 267 257 250 245 242 239 237 235 233 232 230 228 227 227 226 226 225
339 340 340 339 339 340 340 339 339 338 337 337 336 334 332 330 328 326 323 321 317 310 303 297 290 280 270 260 251 245 241 238 235 233 232 231 230 228 227 226 224 224 225
338 339 339 339 339 339 339 340 340 339 339 339 339 338 335 332 330 328 327 325 323 318 311 304 296 288 277 263 252 244 239 236 234 232 229 228 227 226 225 225 224 224 224
336 337 338 338 339 339 340 339 340 340 340 339 339 340 339 337 334 333 331 330 328 323 318 311 302 293 281 265 254 246 239 234 230 229 226 225 225 224 223 222 222 223 223
335 336 336 337 338 339 340 340 339 340 341 341 340 340 340 339 339 338 336 334 332 328 323 319 312 302 286 268 255 247 238 233 228 225 222 220 219 220 221 220 220 220 221
332 334 335 336 337 338 339 340 340 340 341 342 343 343 342 342 341 341 340 339 338 334 331 327 320 311 296 275 256 247 238 229 224 222 220 217 215 215 217 218 218 219 219
329 331 333 334 335 337 338 339 340 341 341 342 343 344 344 345 345 345 345 346 344 341 336 332 327 316 301 277 256 243 236 228 222 220 218 214 210 210 213 215 216 216 217
327 329 330 332 334 335 336 337 338 340 342 342 344 345 345 346 347 348 349 348 347 346 343 339 334 326 307 280 256 240 230 224 218 214 212 212 211 210 211 214 215 215 215
324 325 327 329 331 333 334 336 337 338 341 342 344 346 346 348 350 351 351 352 351 349 348 349 347 337 324 301 269 243 224 219 214 211 209 206 207 207 209 210 212 213 214
320 322 324 326 328 330 332 333 334 336 338 340 342 344 345 346 348 350 352 352 352 351 350 351 353 350 336 313 280 235 215 211 207 205 205 206 207 207 208 208 209 210 211
317 318 320 322 323 326 328 330 332 333 335 337 340 343 343 344 345 346 347 350 351 352 353 355 357 359 358 344 294 224 208 203 201 201 201 201 202 204 206 209 210 211 210
312 314 315 317 319 322 324 327 329 330 332 333 335 339 342 343 343 343 343 346 348 352 356 359 360 1 7 17 14 200 192 193 194 196 199 199 200 200 203 206 208 208 209
309 310 310 313 316 318 320 323 325 326 328 329 331 334 338 340 342 343 344 344 347 350 354 359 1 3 3 10 34 160 174 184 188 193 196 198 200 201 202 203 206 206 206
305 306 307 308 311 313 315 318 320 322 324 325 327 330 333 336 339 343 345 348 351 354 355 357 356 358 3 5 21 158 170 175 181 187 190 193 198 202 202 202 204 206 205
Height
5798 5793 5788 5782 5776 5771 5765 5760 5755 5750 5745 5740 5736 5732 5728 5725 5722 5720 5718 5717 5717 5718 5719 5720 5722 5724 5726 5729 5733 5736 5740 5744 5749 5753 5757 5762 5767 5773 5778 5783 5789 5794 5800
5793 5787 5781 5775 5769 5763 5757 5752 5746 5741 5735 5731 5726 5721 5717 5714 5710 5708 5706 5705 5705 5705 5706 5707 5709 5711 5714 5717 5720 5724 5728 5733 5737 5742 5746 5751 5756 5761 5767 5773 5779 5785 5790
5787 5781 5775 5769 5762 5756 5749 5743 5737 5731 5726 5720 5715 5710 5706 5702 5699 5696 5694 5693 5692 5693 5693 5695 5696 5698 5701 5704 5707 5711 5716 5720 5725 5730 5735 5740 5745 5751 5756 5762 5768 5775 5781
5781 5775 5768 5762 5755 5748 5742 5735 5729 5722 5716 5711 5705 5700 5696 5691 5688 5685 5682 5681 5680 5680 5681 5682 5683 5685 5688 5691 5694 5698 5702 5707 5712 5718 5723 5728 5734 5739 5745 5751 5757 5764 5770
5776 5769 5762 5755 5748 5741 5734 5727 5720 5714 5708 5702 5696 5691 5686 5681 5677 5673 5671 5669 5668 5668 5668 5669 5670 5672 5675 5678 5681 5685 5689 5694 5699 5705 5710 5716 5722 5728 5734 5740 5746 5752 5759
5770 5763 5756 5749 5742 5734 5727 5720 5713 5706 5699 5693 5687 5681 5676 5671 5667 5663 5660 5658 5657 5656 5656 5656 5657 5659 5661 5664 5668 5672 5676 5681 5686 5692 5698 5704 5710 5716 5722 5728 5735 5741 5749
5765 5758 5750 5743 5735 5728 5720 5712 5705 5698 5691 5684 5678 5672 5667 5661 5657 5653 5650 5647 5645 5644 5644 5644 5645 5646 5649 5651 5655 5658 5663 5667 5673 5678 5684 5691 5697 5704 5710 5717 5723 5730 5737
5759 5752 5744 5737 5729 5721 5713 5705 5698 5690 5683 5676 5670 5663 5658 5653 5648 5644 5640 5637 5635 5633 5632 5632 5633 5634 5636 5638 5641 5645 5649 5654 5659 5665 5672 5678 5684 5690 5697 5704 5710 5718 5725
5754 5746 5739 5731 5723 5715 5706 5698 5691 5683 5676 5669 5662 5656 5650 5645 5640 5636 5632 5628 5625 5623 5622 5621 5621 5621 5623 5625 5628 5631 5635 5640 5644 5651 5658 5664 5670 5677 5684 5691 5699 5706 5714
5748 5741 5733 5725 5717 5709 5700 5692 5684 5677 5669 5662 5655 5649 5643 5638 5633 5628 5624 5620 5616 5614 5611 5610 5609 5609 5610 5611 5614 5618 5622 5626 5631 5637 5643 5650 5657 5664 5671 5679 5687 5695 5702
5743 5735 5727 5719 5711 5703 5694 5686 5678 5670 5663 5656 5649 5643 5637 5631 5626 5621 5616 5611 5608 5604 5602 5599 5598 5597 5597 5598 5601 5605 5609 5613 5618 5623 5629 5636 5643 5651 5658 5666 5675 5683 5691
5738 5730 5721 5713 5705 5697 5688 5680 5672 5665 5657 5650 5643 5636 5630 5624 5619 5614 5609 5604 5600 5596 5593 5590 5588 5587 5586 5587 5590 5593 5596 5600 5605 5611 5617 5623 5631 5638 5646 5654 5662 5670 5678
5732 5724 5716 5708 5699 5691 5682 5674 5666 5659 5651 5644 5637 5630 5624 5618 5612 5607 5602 5597 5592 5588 5584 5581 5579 5577 5577 5577 5579 5581 5585 5589 5594 5599 5605 5611 5618 5626 5633 5641 5650 5658 5666
5727 5719 5710 5702 5694 5685 5677 5669 5661 5654 5646 5639 5632 5625 5618 5612 5607 5601 5596 5591 5586 5582 5578 5574 5572 5570 5569 5569 5570 5572 5575 5579 5583 5588 5593 5599 5606 5613 5621 5629 5638 5646 5654
5721 5713 5705 5696 5688 5680 5672 5664 5656 5649 5641 5634 5627 5620 5614 5608 5602 5596 5590 5585 5580 5576 5572 5569 5566 5564 5563 5563 5564 5565 5568 5570 5574 5578 5583 5589 5595 5603 5610 5618 5626 5635 5643
5715 5707 5699 5691 5683 5675 5667 5659 5651 5645 5637 5630 5623 5616 5609 5603 5597 5591 5586 5581 5576 5571 5568 5564 5562 5560 5558 5558 5558 5560 5561 5564 5567 5570 5575 5580 5586 5593 5600 5608 5616 5625 5633
5709 5701 5693 5685 5678 5670 5662 5654 5647 5640 5633 5626 5619 5612 5605 5599 5593 5587 5582 5577 5572 5568 5564 5561 5558 5555 5554 5553 5554 5554 5556 5558 5561 5564 5568 5573 5579 5585 5592 5599 5607 5615 5624
5703 5695 5688 5680 5672 5665 5657 5650 5643 5635 5629 5622 5615 5608 5602 5596 5590 5584 5579 5574 5569 5565 5561 5558 5555 5552 5550 5549 5549 5550 5552 5553 5556 5559 5563 5567 5572 5578 5585 5592 5599 5607 5615
5696 5689 5682 5675 5667 5660 5653 5646 5639 5632 5625 5618 5611 5605 5599 5593 5587 5581 5576 5571 5567 5563 5559 5555 5552 5549 5547 5546 5546 5547 5548 5550 5552 5555 5558 5562 5567 5573 5579 5585 5592 5599 5607
5690 5683 5676 5669 5662 5655 5648 5642 5635 5628 5622 5615 5609 5603 5596 5591 5585 5580 5575 5570 5565 5561 5557 5553 5550 5547 5545 5544 5544 5544 5545 5547 5549 5551 5555 5558 5563 5568 5574 5579 5585 5592 5600
5682 5676 5670 5663 5657 5650 5644 5637 5631 5625 5619 5613 5607 5601 5595 5589 5584 5579 5574 5569 5565 5560 5556 5553 5549 5547 5545 5543 5543 5543 5543 5544 5546 5549 5552 5555 5559 5564 5569 5574 5580 5586 5593
5675 5669 5663 5657 5651 5645 5639 5633 5627 5621 5615 5610 5604 5599 5593 5588 5583 5578 5573 5569 5564 5560 5556 5552 5549 5546 5544 5543 5542 5541 5542 5543 5545 5547 5550 5553 5557 5561 5565 5570 5575 5581 5587
5667 5662 5656 5651 5645 5640 5634 5628 5623 5617 5612 5607 5602 5597 5591 5587 5582 5577 5573 5568 5564 5560 5556 5552 5549 5547 5545 5543 5542 5541 5541 5542 5543 5545 5548 5551 5555 5558 5562 5567 5571 5576 5581
5659 5654 5649 5644 5639 5634 5629 5623 5618 5613 5609 5604 5599 5594 5590 5585 5580 5576 5572 5567 5563 5560 5556 5553 5550 5548 5545 5544 5542 5541 5541 5542 5543 5544 5547 5549 5552 5556 5559 5563 5567 5572 5577
5650 5646 5641 5636 5632 5628 5623 5618 5614 5609 5605 5601 5596 5592 5588 5583 5579 5574 5570 5566 5563 5559 5556 5553 5551 5548 5546 5544 5543 5542 5542 5542 5543 5544 5546 5548 5551 5553 5557 5560 5564 5569 5573
5641 5637 5633 5629 5625 5621 5617 5613 5609 5605 5601 5597 5593 5589 5585 5582 5577 5573 5569 5566 5562 5559 5556 5554 5551 5549 5547 5545 5544 5543 5543 5543 5543 5544 5545 5547 5549 5552 5555 5558 5561 5565 5570